| time (UTC) | temp F | wind direction | speed knots | gust knots | rain 1hr in | rain 24hr in | rain mn in | humidity % | barometer mb |
| 20260831233028 | 96 | 204 | 1.7 | 10.4 | 0.00 | 0.00 | 0.00 | 25 | 1010.9 |
| 20260831231539 | 96 | 209 | 4.3 | 10.4 | 0.00 | 0.00 | 0.00 | 25 | 1010.9 |
| 20260831230036 | 99 | 225 | 1.7 | 8.7 | 0.00 | 0.00 | 0.00 | 24 | 1011.1 |
| 20260831224526 | 97 | 202 | 3.5 | 7.8 | 0.00 | 0.00 | 0.00 | 27 | 1011.1 |
| 20260831223024 | 95 | 155 | 1.7 | 7.0 | 0.00 | 0.00 | 0.00 | 27 | 1011.3 |
| 20260831221523 | 91 | 190 | 2.6 | 7.0 | 0.00 | 0.00 | 0.00 | 26 | 1011.7 |
| 20260831220022 | 91 | 355 | 8.7 | 14.8 | 0.00 | 0.00 | 0.00 | 29 | 1011.9 |
| 20260831214525 | 95 | 169 | 13.0 | 20.0 | 0.00 | 0.00 | 0.00 | 27 | 1012.0 |
| 20260831213020 | 100 | 234 | 1.7 | 9.6 | 0.00 | 0.00 | 0.00 | 22 | 1011.9 |
| 20260831211528 | 101 | 248 | 4.3 | 8.7 | 0.00 | 0.00 | 0.00 | 21 | 1012.1 |
| 20260831210014 | 98 | 296 | 0.9 | 10.4 | 0.00 | 0.00 | 0.00 | 23 | 1012.4 |
| 20260831204512 | 99 | 269 | 5.2 | 8.7 | 0.00 | 0.00 | 0.00 | 23 | 1012.7 |
| 20260831203017 | 99 | 360 | 3.5 | 7.0 | 0.00 | 0.00 | 0.00 | 27 | 1012.9 |
| 20260831201506 | 96 | 355 | 5.2 | 10.4 | 0.00 | 0.00 | 0.00 | 25 | 1013.3 |
| 20260831200003 | 94 | 330 | 4.3 | 10.4 | 0.00 | 0.00 | 0.00 | 29 | 1013.6 |
| 20260831194502 | 95 | 360 | 5.2 | 10.4 | 0.00 | 0.00 | 0.00 | 27 | 1014.0 |
| 20260831193001 | 95 | 320 | 2.6 | 11.3 | 0.00 | 0.00 | 0.00 | 28 | 1014.2 |
| 20260831191558 | 95 | 278 | 2.6 | 11.3 | 0.00 | 0.00 | 0.00 | 27 | 1014.4 |
| 20260831190100 | 95 | 275 | 7.8 | 11.3 | 0.00 | 0.00 | 0.00 | 28 | 1014.6 |
| 20260831184600 | 94 | 269 | 0.0 | 11.3 | 0.00 | 0.00 | 0.00 | 30 | 1014.8 |
| 20260831183055 | 94 | 269 | 6.1 | 9.6 | 0.00 | 0.00 | 0.00 | 29 | 1015.0 |
| 20260831181551 | 95 | 250 | 6.1 | 9.6 | 0.00 | 0.00 | 0.00 | 30 | 1015.2 |
| 20260831180048 | 93 | 277 | 8.7 | 13.9 | 0.00 | 0.00 | 0.00 | 29 | 1015.5 |
| 20260831174546 | 92 | 254 | 2.6 | 12.2 | 0.00 | 0.00 | 0.00 | 30 | 1015.6 |
| 20260831173042 | 92 | 240 | 3.5 | 7.8 | 0.00 | 0.00 | 0.00 | 32 | 1015.7 |
| 20260831171543 | 93 | 271 | 4.3 | 10.4 | 0.00 | 0.00 | 0.00 | 31 | 1015.8 |
| 20260831170038 | 91 | 244 | 2.6 | 7.0 | 0.00 | 0.00 | 0.00 | 35 | 1015.9 |
| 20260831164537 | 89 | 360 | 7.8 | 13.0 | 0.00 | 0.00 | 0.00 | 34 | 1016.2 |
| 20260831163033 | 90 | 249 | 2.6 | 10.4 | 0.00 | 0.00 | 0.00 | 35 | 1016.2 |
| 20260831161533 | 90 | 360 | 5.2 | 12.2 | 0.00 | 0.00 | 0.00 | 35 | 1016.0 |
| 20260831160028 | 88 | 232 | 9.6 | 13.0 | 0.00 | 0.00 | 0.00 | 37 | 1016.0 |
| 20260831154524 | 87 | 360 | 1.7 | 10.4 | 0.00 | 0.00 | 0.00 | 40 | 1015.9 |
| 20260831153020 | 86 | 231 | 3.5 | 8.7 | 0.00 | 0.00 | 0.00 | 41 | 1015.9 |
| 20260831151519 | 86 | 225 | 3.5 | 8.7 | 0.00 | 0.00 | 0.00 | 41 | 1016.0 |
| 20260831150016 | 83 | 329 | 0.0 | 1.7 | 0.00 | 0.00 | 0.00 | 47 | 1016.0 |
| 20260831144514 | 82 | 327 | 0.0 | 4.3 | 0.00 | 0.00 | 0.00 | 48 | 1016.1 |
| 20260831143010 | 81 | 336 | 2.6 | 4.3 | 0.00 | 0.00 | 0.00 | 49 | 1016.1 |
| 20260831141507 | 79 | 332 | 0.9 | 2.6 | 0.00 | 0.00 | 0.00 | 54 | 1016.2 |
| 20260831140005 | 78 | 332 | 2.6 | 5.2 | 0.00 | 0.00 | 0.00 | 52 | 1016.1 |
| 20260831134503 | 77 | 348 | 4.3 | 7.8 | 0.00 | 0.00 | 0.00 | 53 | 1016.0 |
| 20260831133059 | 73 | 347 | 5.2 | 8.7 | 0.00 | 0.00 | 0.00 | 58 | 1015.7 |
| 20260831131557 | 74 | 355 | 3.5 | 7.0 | 0.00 | 0.00 | 0.00 | 56 | 1015.4 |
| 20260831130109 | 74 | 23 | 4.3 | 9.6 | 0.00 | 0.00 | 0.00 | 57 | 1015.4 |
| 20260831124551 | 72 | 346 | 4.3 | 7.0 | 0.00 | 0.00 | 0.00 | 58 | 1015.2 |
| 20260831123048 | 73 | 29 | 1.7 | 7.0 | 0.00 | 0.00 | 0.00 | 56 | 1014.9 |
| 20260831121547 | 73 | 341 | 6.1 | 8.7 | 0.00 | 0.00 | 0.00 | 55 | 1014.9 |
| 20260831120046 | 73 | 355 | 4.3 | 9.6 | 0.00 | 0.00 | 0.00 | 56 | 1014.8 |
| 20260831114543 | 72 | 360 | 0.9 | 5.2 | 0.00 | 0.00 | 0.00 | 57 | 1014.6 |
| 20260831113041 | 73 | 360 | 3.5 | 7.0 | 0.00 | 0.00 | 0.00 | 56 | 1014.6 |
| 20260831111538 | 74 | 342 | 0.0 | 3.5 | 0.00 | 0.00 | 0.00 | 55 | 1014.3 |
| 20260831110040 | 74 | 360 | 1.7 | 4.3 | 0.00 | 0.00 | 0.00 | 55 | 1014.3 |
| 20260831104540 | 74 | 360 | 2.6 | 5.2 | 0.00 | 0.00 | 0.00 | 54 | 1014.4 |
| 20260831103035 | 76 | 360 | 1.7 | 7.0 | 0.00 | 0.00 | 0.00 | 52 | 1014.4 |
| 20260831101535 | 75 | 335 | 2.6 | 4.3 | 0.00 | 0.00 | 0.00 | 53 | 1014.3 |
| 20260831100031 | 76 | 344 | 1.7 | 3.5 | 0.00 | 0.00 | 0.00 | 52 | 1014.1 |
| 20260831094527 | 77 | 344 | 0.9 | 2.6 | 0.00 | 0.00 | 0.00 | 50 | 1014.2 |
| 20260831093025 | 78 | 343 | 2.6 | 5.2 | 0.00 | 0.00 | 0.00 | 49 | 1014.2 |
| 20260831091521 | 78 | 360 | 2.6 | 4.3 | 0.00 | 0.00 | 0.00 | 48 | 1014.3 |
| 20260831090018 | 80 | 360 | 0.9 | 8.7 | 0.00 | 0.00 | 0.00 | 45 | 1014.3 |
| 20260831084516 | 80 | 360 | 0.9 | 7.8 | 0.00 | 0.00 | 0.00 | 45 | 1014.3 |
| 20260831083029 | 80 | 360 | 1.7 | 7.8 | 0.00 | 0.00 | 0.00 | 44 | 1014.2 |
| 20260831081512 | 81 | 360 | 1.7 | 9.6 | 0.00 | 0.00 | 0.00 | 43 | 1014.4 |
| 20260831080011 | 81 | 360 | 4.3 | 10.4 | 0.00 | 0.00 | 0.00 | 42 | 1014.4 |
| 20260831074510 | 82 | 360 | 2.6 | 10.4 | 0.00 | 0.00 | 0.00 | 43 | 1014.6 |
| 20260831073014 | 82 | 360 | 7.0 | 13.0 | 0.00 | 0.00 | 0.00 | 42 | 1014.6 |
| 20260831071507 | 82 | 360 | 1.7 | 10.4 | 0.00 | 0.00 | 0.00 | 44 | 1014.9 |
| 20260831070011 | 82 | 360 | 4.3 | 11.3 | 0.00 | 0.00 | 0.00 | 43 | 1014.7 |
| 20260831064504 | 82 | 360 | 7.8 | 13.9 | 0.00 | 0.00 | 0.00 | 43 | 1014.8 |
| 20260831063101 | 83 | 360 | 5.2 | 13.9 | 0.00 | 0.00 | 0.00 | 43 | 1014.7 |
| 20260831061557 | 83 | 255 | 7.0 | 13.9 | 0.00 | 0.00 | 0.00 | 42 | 1014.7 |
| 20260831060104 | 83 | 360 | 7.8 | 13.0 | 0.00 | 0.00 | 0.00 | 42 | 1014.7 |
| 20260831054552 | 84 | 229 | 4.3 | 10.4 | 0.00 | 0.00 | 0.00 | 41 | 1014.5 |
| 20260831053050 | 84 | 228 | 8.7 | 13.0 | 0.00 | 0.00 | 0.00 | 40 | 1014.5 |
| 20260831051552 | 85 | 215 | 9.6 | 17.4 | 0.00 | 0.00 | 0.00 | 39 | 1014.5 |
| 20260831050043 | 85 | 237 | 7.8 | 15.6 | 0.00 | 0.00 | 0.00 | 38 | 1014.4 |
| 20260831044544 | 86 | 223 | 7.8 | 17.4 | 0.00 | 0.00 | 0.00 | 37 | 1014.4 |
| 20260831043041 | 86 | 209 | 5.2 | 13.9 | 0.00 | 0.00 | 0.00 | 35 | 1014.3 |
| 20260831041635 | 87 | 207 | 8.7 | 16.5 | 0.00 | 0.00 | 0.00 | 34 | 1014.1 |
| 20260831040040 | 87 | 360 | 7.0 | 11.3 | 0.00 | 0.00 | 0.00 | 31 | 1014.0 |
| 20260831034540 | 88 | 238 | 5.2 | 14.8 | 0.00 | 0.00 | 0.00 | 30 | 1013.8 |
| 20260831033039 | 88 | 207 | 6.1 | 12.2 | 0.00 | 0.00 | 0.00 | 29 | 1013.5 |
| 20260831031539 | 89 | 226 | 2.6 | 10.4 | 0.00 | 0.00 | 0.00 | 29 | 1013.3 |
| 20260831030038 | 89 | 244 | 2.6 | 10.4 | 0.00 | 0.00 | 0.00 | 29 | 1013.0 |
| 20260831024549 | 89 | 220 | 3.5 | 9.6 | 0.00 | 0.00 | 0.00 | 29 | 1012.7 |
| 20260831023037 | 89 | 207 | 5.2 | 10.4 | 0.00 | 0.00 | 0.00 | 29 | 1012.3 |
| 20260831021547 | 90 | 242 | 0.9 | 9.6 | 0.00 | 0.00 | 0.00 | 29 | 1012.1 |
| 20260831020035 | 91 | 219 | 2.6 | 8.7 | 0.00 | 0.00 | 0.00 | 28 | 1011.9 |
| 20260831014535 | 91 | 222 | 3.5 | 10.4 | 0.00 | 0.00 | 0.00 | 29 | 1011.7 |
| 20260831013035 | 92 | 221 | 3.5 | 12.2 | 0.00 | 0.00 | 0.00 | 28 | 1011.5 |
| 20260831011545 | 93 | 216 | 2.6 | 8.7 | 0.00 | 0.00 | 0.00 | 26 | 1011.3 |
| 20260831010036 | 93 | 205 | 3.5 | 8.7 | 0.00 | 0.00 | 0.00 | 26 | 1011.3 |
| 20260831004533 | 94 | 242 | 4.3 | 9.6 | 0.00 | 0.00 | 0.00 | 25 | 1011.2 |
| 20260831003036 | 95 | 225 | 0.9 | 5.2 | 0.00 | 0.00 | 0.00 | 26 | 1011.2 |
| 20260831001533 | 96 | 241 | 7.8 | 13.0 | 0.00 | 0.00 | 0.00 | 25 | 1011.1 |
| 20260831000040 | 97 | 360 | 2.6 | 7.8 | 0.00 | 0.00 | 0.00 | 25 | 1011.3 |
| 20260830234530 | 98 | 222 | 3.5 | 13.9 | 0.00 | 0.00 | 0.00 | 24 | 1011.2 |